Home   Weather   Kashgar   Past weeks

Flag for China Past Weather in Kashgar, Xinjiang, China — Yesterday and Last 2 Weeks

Now
39 °F

Passing clouds.


Feels Like: 39 °F
Forecast: 22 / 50 °F
Wind: No wind

Location: Kashi Airport

Current Time: Dec 3, 2016 at 3:01:42 pm

Latest Report: Dec 3, 2016 at 2:00 pm


Visibility: 3 mi

Pressure: 30.27 "Hg (25.79 "Hg at 1298m altitude)

Humidity: 61%

Dew Point: 27 °F

Location of KashgarLocation

Past Weather in Kashgar — Graph

°F

Kashgar Temperature Yesterday

Maximum temperature yesterday: 37 °F (at 5:00 pm)
Minimum temperature yesterday: 27 °F (at 6:00 am)
Average temperature yesterday: 31 °F

High & Low Weather Summary for the Past Weeks

 TemperatureHumidityPressure
High66 °F (Nov 18, 5:00 pm)100% (Nov 21, 11:00 am)30.54 "Hg (Nov 21, 11:00 am)
Low21 °F (Nov 23, 9:00 am)17% (Nov 18, 5:00 pm)29.86 "Hg (Nov 20, 5:00 am)
Average32 °F73%30.29 "Hg
* Reported Nov 18 2:00 pm — Dec 3 2:00 pm, Kashgar, Weather by CustomWeather, © 2016

Note: Actual official high and low records may vary slightly from our data, if they occured in-between our weather recording intervals... More about our weather records

Advertising

Kashgar Weather History for the Previous 24 Hours

Scroll right to see more
 ConditionsComfort  
Time TempWeatherWind HumidityBarometerVisibility
2:00 pm
Sat, Dec 3
39 °FPassing clouds.No wind61%30.27 "Hg3 mi
1:00 pm36 °FScattered clouds.No wind70%30.30 "Hg4 mi
12:00 pm32 °FClear.No wind80%30.30 "Hg4 mi
11:00 am28 °FClear.6 mph80%30.30 "Hg5 mi
10:00 am27 °FClear.6 mph80%30.30 "Hg4 mi
9:00 am28 °FIce fog.8 mph80%30.30 "Hg3 mi
8:00 am27 °FIce fog.8 mph86%30.27 "Hg3 mi
7:00 am27 °FIce fog.8 mph86%30.27 "Hg2 mi
6:00 am27 °FIce fog.6 mph86%30.30 "Hg2 mi
5:00 am27 °FIce fog.6 mph93%30.30 "Hg1 mi
4:00 am27 °FIce fog.6 mph93%30.30 "Hg1 mi
3:00 am28 °FIce fog.3 mph86%30.30 "Hg3 mi
2:00 am28 °FIce fog.No wind86%30.33 "Hg3 mi
1:00 am28 °FIce fog.3 mph86%30.33 "Hg2 mi
12:00 am30 °FIce fog.3 mph86%30.33 "Hg2 mi
11:00 pm
Fri, Dec 2
30 °FClear.No wind86%30.36 "Hg2 mi
10:00 pm32 °FClear.No wind80%30.36 "Hg2 mi
9:00 pm32 °FClear.No wind80%30.36 "Hg3 mi
8:00 pm34 °FClear.1 mph70%30.36 "Hg3 mi
7:00 pm36 °FClear.3 mph70%30.36 "Hg3 mi
6:00 pm37 °FClear.3 mph65%30.33 "Hg3 mi
5:00 pm37 °FPassing clouds.1 mph60%30.36 "Hg3 mi
4:00 pm36 °FClear.1 mph65%30.36 "Hg3 mi
3:00 pm36 °FPassing clouds.No wind65%30.39 "Hg3 mi
Weather by CustomWeather, © 2016

See weather overviewHow to use our weather pages